DLH2EM EDDW-EDDF

Flight info

Callsign DLH2EM
Flight time 0h 39m
Altitude 19000
Route WIMCI1L WIMCI Y804 PIROT T152 RANIN/N0380F180 Z20 GISEM Z10 TESGA/N0386F190 L603 SUPIX/N0380F180 T163 SPESA SPESA5B
Aircraft A21N/M-SDE2E3FGIJ1LORWXYZ/HB1

Departure

Time 2026-05-03 21:22
Airport Bremen Airport (EDDW)

Arrival

Time 2026-05-03 22:02
Airport Frankfurt Main Airport (EDDF)
Time Latitude Longitude Altitude Speed Heading
2026-05-03 21:05 53.05170 8.78528 52 ft 0 kts 50°
2026-05-03 21:14 53.05160 8.78507 26 ft 4 kts 51°
2026-05-03 21:14 53.05144 8.78472 28 ft 4 kts 59°
2026-05-03 21:15 53.05135 8.78433 29 ft 4 kts 94°
2026-05-03 21:15 53.05138 8.78414 28 ft 0 kts 129°
2026-05-03 21:19 53.05122 8.78443 25 ft 9 kts 136°
2026-05-03 21:19 53.05070 8.78522 24 ft 11 kts 138°
2026-05-03 21:19 53.05013 8.78629 24 ft 14 kts 107°
2026-05-03 21:19 53.04957 8.78768 24 ft 16 kts 139°
2026-05-03 21:20 53.04871 8.78898 24 ft 18 kts 123°
2026-05-03 21:20 53.04861 8.79115 26 ft 20 kts 88°
2026-05-03 21:20 53.04867 8.79353 24 ft 21 kts 86°
2026-05-03 21:20 53.04871 8.79604 24 ft 22 kts 90°
2026-05-03 21:21 53.04876 8.79866 24 ft 23 kts 86°
2026-05-03 21:21 53.04886 8.80139 24 ft 24 kts 89°
2026-05-03 21:21 53.04871 8.80421 27 ft 26 kts 132°
2026-05-03 21:21 53.04724 8.80379 25 ft 27 kts 268°
2026-05-03 21:22 53.04715 8.79938 26 ft 69 kts 270°
2026-05-03 21:22 53.04685 8.78736 26 ft 136 kts 268°
2026-05-03 21:22 53.04645 8.77091 496 ft 140 kts 264°
2026-05-03 21:22 53.04647 8.75492 1162 ft 138 kts 267°
2026-05-03 21:23 53.04595 8.73841 1638 ft 154 kts 262°
2026-05-03 21:23 53.04463 8.71892 1952 ft 182 kts 263°
2026-05-03 21:23 53.04268 8.69667 2296 ft 211 kts 246°
2026-05-03 21:23 53.03204 8.67812 2655 ft 240 kts 209°
2026-05-03 21:24 53.01543 8.67285 3507 ft 252 kts 178°
2026-05-03 21:24 52.99862 8.68405 4199 ft 276 kts 147°
2026-05-03 21:24 52.98545 8.70751 5098 ft 281 kts 128°
2026-05-03 21:24 52.97579 8.73615 5905 ft 291 kts 121°
2026-05-03 21:25 52.96504 8.76542 6358 ft 306 kts 131°
2026-05-03 21:25 52.94953 8.79074 6577 ft 323 kts 150°
2026-05-03 21:25 52.92871 8.80661 6757 ft 339 kts 164°
2026-05-03 21:25 52.90563 8.81941 6913 ft 359 kts 165°
2026-05-03 21:26 52.88136 8.83273 7109 ft 376 kts 165°
2026-05-03 21:26 52.85680 8.84652 7605 ft 384 kts 164°
2026-05-03 21:26 52.83114 8.86112 8357 ft 389 kts 164°
2026-05-03 21:26 52.80545 8.87582 9145 ft 392 kts 163°
2026-05-03 21:27 52.77956 8.89066 9880 ft 396 kts 163°
2026-05-03 21:27 52.75342 8.90564 10524 ft 400 kts 164°
2026-05-03 21:27 52.72700 8.92076 11208 ft 403 kts 164°
2026-05-03 21:27 52.70022 8.93438 11834 ft 403 kts 172°
2026-05-03 21:28 52.67236 8.93659 12456 ft 401 kts 187°
2026-05-03 21:28 52.64460 8.93208 13152 ft 403 kts 189°
2026-05-03 21:28 52.61664 8.92707 13813 ft 405 kts 188°
2026-05-03 21:28 52.58845 8.92264 14438 ft 409 kts 186°
2026-05-03 21:29 52.55989 8.92092 15094 ft 412 kts 184°
2026-05-03 21:29 52.53117 8.91970 15621 ft 414 kts 184°
2026-05-03 21:29 52.50233 8.91842 16049 ft 416 kts 185°
2026-05-03 21:29 52.47334 8.91701 16413 ft 417 kts 185°
2026-05-03 21:30 52.44425 8.91556 16820 ft 419 kts 185°
2026-05-03 21:30 52.41506 8.91409 17265 ft 421 kts 185°
2026-05-03 21:30 52.38569 8.91262 17704 ft 423 kts 185°
2026-05-03 21:30 52.35619 8.91113 18094 ft 425 kts 185°
2026-05-03 21:31 52.32654 8.90961 18488 ft 427 kts 185°
2026-05-03 21:31 52.29679 8.90811 18979 ft 429 kts 185°
2026-05-03 21:31 52.26687 8.90660 19485 ft 431 kts 185°
2026-05-03 21:31 52.23688 8.90509 19992 ft 432 kts 185°
2026-05-03 21:32 52.20673 8.90358 20575 ft 435 kts 185°
2026-05-03 21:32 52.17648 8.90205 21190 ft 436 kts 185°
2026-05-03 21:32 52.14601 8.90052 21666 ft 439 kts 185°
2026-05-03 21:32 52.11546 8.89899 22052 ft 441 kts 185°
2026-05-03 21:33 52.08469 8.89747 22404 ft 442 kts 184°
2026-05-03 21:33 52.05383 8.89594 22828 ft 445 kts 184°
2026-05-03 21:33 52.02284 8.89438 23317 ft 447 kts 184°
2026-05-03 21:33 51.99170 8.89282 23708 ft 449 kts 184°
2026-05-03 21:34 51.96049 8.89126 23930 ft 450 kts 184°
2026-05-03 21:34 51.92917 8.88970 23961 ft 450 kts 184°
2026-05-03 21:34 51.89790 8.88815 23965 ft 450 kts 184°
2026-05-03 21:34 51.86658 8.88661 23956 ft 450 kts 184°
2026-05-03 21:35 51.83532 8.88507 23958 ft 450 kts 184°
2026-05-03 21:35 51.80399 8.88353 23959 ft 450 kts 184°
2026-05-03 21:35 51.77312 8.88200 23960 ft 450 kts 184°
2026-05-03 21:35 51.74186 8.88044 23964 ft 450 kts 184°
2026-05-03 21:36 51.71015 8.87887 23950 ft 450 kts 184°
2026-05-03 21:36 51.67882 8.87734 23957 ft 451 kts 185°
2026-05-03 21:36 51.64747 8.87581 23960 ft 451 kts 185°
2026-05-03 21:36 51.61609 8.87427 23958 ft 451 kts 185°
2026-05-03 21:37 51.58478 8.87274 23963 ft 451 kts 185°
2026-05-03 21:37 51.55383 8.87122 23963 ft 451 kts 185°
2026-05-03 21:37 51.52248 8.87116 23919 ft 447 kts 179°
2026-05-03 21:37 51.49196 8.87922 23049 ft 445 kts 172°
2026-05-03 21:38 51.46171 8.89054 21947 ft 446 kts 171°
2026-05-03 21:38 51.43159 8.90185 21072 ft 444 kts 171°
2026-05-03 21:38 51.40156 8.91272 20421 ft 441 kts 171°
2026-05-03 21:38 51.37170 8.92324 19748 ft 437 kts 171°
2026-05-03 21:39 51.34217 8.93348 19010 ft 434 kts 172°
2026-05-03 21:39 51.32223 8.94040 18517 ft 432 kts 171°
2026-05-03 21:39 51.29297 8.95054 17651 ft 429 kts 171°
2026-05-03 21:39 51.26393 8.96058 16838 ft 425 kts 171°
2026-05-03 21:40 51.23516 8.97053 16013 ft 421 kts 171°
2026-05-03 21:40 51.20668 8.98031 15225 ft 418 kts 171°
2026-05-03 21:40 51.17826 8.99006 14608 ft 416 kts 171°
2026-05-03 21:40 51.15004 8.99976 14100 ft 414 kts 171°
2026-05-03 21:41 51.12201 9.00940 13586 ft 411 kts 171°
2026-05-03 21:41 51.09416 9.01892 13054 ft 408 kts 171°
2026-05-03 21:41 51.06654 9.02838 12549 ft 402 kts 171°
2026-05-03 21:41 51.03949 9.03767 12127 ft 394 kts 171°
2026-05-03 21:42 51.01312 9.04672 11734 ft 382 kts 171°
2026-05-03 21:42 50.98752 9.05545 11377 ft 370 kts 171°
2026-05-03 21:42 50.96273 9.06386 11170 ft 362 kts 171°
2026-05-03 21:42 50.93812 9.07218 11013 ft 361 kts 171°
2026-05-03 21:43 50.91363 9.08046 10955 ft 360 kts 171°
2026-05-03 21:43 50.88909 9.08877 10958 ft 360 kts 171°
2026-05-03 21:43 50.86455 9.09712 10970 ft 361 kts 171°
2026-05-03 21:43 50.84002 9.10552 10973 ft 361 kts 171°
2026-05-03 21:44 50.81580 9.11378 10992 ft 361 kts 171°
2026-05-03 21:44 50.79129 9.12208 10991 ft 361 kts 171°
2026-05-03 21:44 50.76674 9.13036 10991 ft 361 kts 171°
2026-05-03 21:44 50.74219 9.13863 10910 ft 361 kts 171°
2026-05-03 21:45 50.71772 9.14690 10706 ft 358 kts 171°
2026-05-03 21:45 50.69368 9.15505 10490 ft 346 kts 172°
2026-05-03 21:45 50.67054 9.16284 10248 ft 334 kts 172°
2026-05-03 21:45 50.64818 9.17037 10037 ft 323 kts 172°
2026-05-03 21:46 50.62663 9.17762 9887 ft 310 kts 172°
2026-05-03 21:46 50.60593 9.18455 9733 ft 298 kts 172°
2026-05-03 21:46 50.58601 9.19119 9590 ft 287 kts 172°
2026-05-03 21:46 50.56679 9.19761 9410 ft 278 kts 173°
2026-05-03 21:47 50.54808 9.20369 9162 ft 271 kts 173°
2026-05-03 21:47 50.52963 9.20940 8987 ft 270 kts 173°
2026-05-03 21:47 50.51116 9.21505 8959 ft 270 kts 173°
2026-05-03 21:47 50.49266 9.22064 8981 ft 271 kts 174°
2026-05-03 21:48 50.47421 9.22619 9001 ft 267 kts 174°
2026-05-03 21:48 50.45650 9.23162 8943 ft 253 kts 174°
2026-05-03 21:48 50.43948 9.23693 8695 ft 247 kts 174°
2026-05-03 21:48 50.42267 9.24219 8360 ft 245 kts 174°
2026-05-03 21:49 50.40598 9.24740 8020 ft 245 kts 174°
2026-05-03 21:49 50.38927 9.25260 7700 ft 244 kts 174°
2026-05-03 21:49 50.37268 9.25781 7428 ft 241 kts 174°
2026-05-03 21:49 50.35644 9.26339 7163 ft 237 kts 174°
2026-05-03 21:50 50.34054 9.26924 7002 ft 234 kts 174°
2026-05-03 21:50 50.32486 9.27499 6975 ft 229 kts 174°
2026-05-03 21:50 50.30935 9.28077 6980 ft 226 kts 174°
2026-05-03 21:50 50.29446 9.28656 6976 ft 216 kts 174°
2026-05-03 21:51 50.28010 9.29257 6673 ft 213 kts 174°
2026-05-03 21:51 50.26558 9.29786 6297 ft 212 kts 183°
2026-05-03 21:51 50.25169 9.29345 5930 ft 203 kts 213°
2026-05-03 21:51 50.24147 9.27862 5575 ft 202 kts 231°
2026-05-03 21:52 50.23302 9.26088 5237 ft 204 kts 233°
2026-05-03 21:52 50.22457 9.24271 4969 ft 210 kts 234°
2026-05-03 21:52 50.21585 9.22419 4747 ft 213 kts 233°
2026-05-03 21:52 50.20706 9.20575 4517 ft 212 kts 234°
2026-05-03 21:53 50.19808 9.18731 4333 ft 215 kts 233°
2026-05-03 21:53 50.18895 9.16879 4191 ft 216 kts 233°
2026-05-03 21:53 50.17982 9.15035 4057 ft 213 kts 233°
2026-05-03 21:53 50.17104 9.13165 3995 ft 214 kts 241°
2026-05-03 21:54 50.16455 9.11079 4002 ft 214 kts 249°
2026-05-03 21:54 50.15949 9.08896 4021 ft 213 kts 250°
2026-05-03 21:54 50.15436 9.06729 4026 ft 213 kts 250°
2026-05-03 21:54 50.14922 9.04556 4025 ft 214 kts 249°
2026-05-03 21:55 50.14406 9.02383 4022 ft 214 kts 250°
2026-05-03 21:55 50.13889 9.00207 4013 ft 214 kts 250°
2026-05-03 21:55 50.13373 8.98031 4015 ft 214 kts 250°
2026-05-03 21:55 50.12855 8.95850 4013 ft 214 kts 249°
2026-05-03 21:56 50.12346 8.93705 4006 ft 203 kts 249°
2026-05-03 21:56 50.11864 8.91678 4006 ft 198 kts 250°
2026-05-03 21:56 50.11404 8.89744 4024 ft 178 kts 250°
2026-05-03 21:56 50.10986 8.87985 4022 ft 172 kts 250°
2026-05-03 21:57 50.10571 8.86235 3959 ft 173 kts 249°
2026-05-03 21:57 50.10155 8.84487 3803 ft 172 kts 250°
2026-05-03 21:57 50.09742 8.82750 3590 ft 170 kts 250°
2026-05-03 21:57 50.09333 8.81029 3375 ft 170 kts 249°
2026-05-03 21:58 50.08923 8.79305 3147 ft 169 kts 250°
2026-05-03 21:58 50.08512 8.77579 2913 ft 171 kts 250°
2026-05-03 21:58 50.08099 8.75844 2686 ft 171 kts 249°
2026-05-03 21:58 50.07692 8.74094 2478 ft 175 kts 252°
2026-05-03 21:59 50.07459 8.72261 2341 ft 167 kts 262°
2026-05-03 21:59 50.07344 8.70517 2058 ft 157 kts 257°
2026-05-03 21:59 50.06969 8.68992 1880 ft 149 kts 245°
2026-05-03 21:59 50.06597 8.67488 1689 ft 148 kts 249°
2026-05-03 22:00 50.06246 8.65975 1452 ft 149 kts 249°
2026-05-03 22:00 50.05886 8.64466 1240 ft 150 kts 248°
2026-05-03 22:00 50.05515 8.62938 1031 ft 151 kts 249°
2026-05-03 22:00 50.05159 8.61405 811 ft 149 kts 249°
2026-05-03 22:01 50.04810 8.59928 597 ft 148 kts 248°
2026-05-03 22:01 50.04446 8.58418 393 ft 150 kts 249°
2026-05-03 22:01 50.04107 8.57000 372 ft 127 kts 248°
2026-05-03 22:01 50.03889 8.56087 359 ft 62 kts 250°
2026-05-03 22:02 50.03763 8.55570 356 ft 39 kts 253°
2026-05-03 22:02 50.03678 8.55167 355 ft 39 kts 265°
2026-05-03 22:02 50.03684 8.55054 351 ft 6 kts 283°
2026-05-03 22:02 50.03697 8.54969 354 ft 10 kts 283°
2026-05-03 22:03 50.03714 8.54848 354 ft 12 kts 294°
2026-05-03 22:03 50.03790 8.54861 356 ft 15 kts 56°
2026-05-03 22:03 50.03828 8.55019 356 ft 16 kts 72°
2026-05-03 22:03 50.03873 8.55190 360 ft 18 kts 70°
2026-05-03 22:04 50.03912 8.55381 360 ft 19 kts 70°
2026-05-03 22:04 50.03960 8.55587 357 ft 21 kts 70°
2026-05-03 22:04 50.04010 8.55804 359 ft 22 kts 70°
2026-05-03 22:04 50.04064 8.56029 359 ft 23 kts 67°
2026-05-03 22:05 50.04127 8.56272 360 ft 17 kts 66°
2026-05-03 22:05 50.04139 8.56284 365 ft 3 kts 20°
2026-05-03 22:05 50.04172 8.56281 364 ft 6 kts 335°
2026-05-03 22:05 50.04220 8.56251 365 ft 9 kts 338°
2026-05-03 22:06 50.04282 8.56210 361 ft 11 kts 323°
2026-05-03 22:06 50.04299 8.56091 366 ft 13 kts 306°
2026-05-03 22:06 50.04386 8.56031 367 ft 15 kts 345°
2026-05-03 22:06 50.04445 8.56126 364 ft 12 kts 126°
2026-05-03 22:07 50.04437 8.56134 369 ft 2 kts 154°
2026-05-03 22:07 50.04422 8.56145 361 ft 3 kts 154°
2026-05-03 22:07 50.04404 8.56158 366 ft 0 kts 154°
2026-05-03 22:07 50.04402 8.56159 366 ft 1 kts 154°
2026-05-03 22:08 50.04391 8.56168 362 ft 0 kts 155°